This is the latest recevied weather packets stored in our database for station/object SP6PWT-13. If no packets are shown the sender has not sent any weather packets the latest 10 day(s).
| Time | Temp. | Humidity | Pressure | Rain* | Wind** | Luminosity | Snow |
|---|---|---|---|---|---|---|---|
| 1777335634 | 7.22° C | 54% | 1006 hPa | 0 mm | - | 0 W/m² | - |
| 1777335333 | 7.78° C | 55% | 1006.1 hPa | 0 mm | - | 0 W/m² | - |
| 1777335022 | 7.78° C | 55% | 1006.1 hPa | 0 mm | - | 0 W/m² | - |
| 1777334722 | 7.78° C | 56% | 1006 hPa | 0 mm | - | 0 W/m² | - |
| 1777334421 | 7.78° C | 56% | 1006 hPa | 0 mm | - | 0 W/m² | - |
| 1777334110 | 8.33° C | 55% | 1005.9 hPa | 0 mm | - | 0 W/m² | - |
| 1777333809 | 8.33° C | 55% | 1005.9 hPa | 0 mm | - | 0 W/m² | - |
| 1777333499 | 8.33° C | 54% | 1005.7 hPa | 0 mm | - | 0 W/m² | - |
| 1777333197 | 8.89° C | 53% | 1005.7 hPa | 0 mm | - | 0 W/m² | - |
| 1777332897 | 8.89° C | 52% | 1005.7 hPa | 0 mm | - | 0 W/m² | - |
| 1777332586 | 8.89° C | 52% | 1005.7 hPa | 0 mm | - | 0 W/m² | - |
| 1777332285 | 8.89° C | 51% | 1005.7 hPa | 0 mm | - | 0 W/m² | - |
| 1777331985 | 8.89° C | 51% | 1005.6 hPa | 0 mm | - | 0 W/m² | - |
| 1777331674 | 8.89° C | 52% | 1005.4 hPa | 0 mm | - | 0 W/m² | - |
| 1777331374 | 8.33° C | 53% | 1005.5 hPa | 0 mm | - | 0 W/m² | - |
| 1777331072 | 8.33° C | 56% | 1005.4 hPa | 0 mm | - | 0 W/m² | - |
| 1777330772 | 10.56° C | 52% | 1005.3 hPa | 0 mm | - | 0 W/m² | - |
| 1777330471 | 10.56° C | 42% | 1005 hPa | 0 mm | - | 0 W/m² | - |
| 1777330160 | 10.56° C | 41% | 1005.1 hPa | 0 mm | - | 0 W/m² | - |
| 1777329859 | 10.56° C | 41% | 1005 hPa | 0 mm | - | 0 W/m² | - |
| 1777329558 | 10.56° C | 40% | 1004.9 hPa | 0 mm | - | 0 W/m² | - |
| 1777329247 | 10.56° C | 41% | 1005.2 hPa | 0 mm | - | 0 W/m² | - |
| 1777328946 | 10.56° C | 42% | 1005 hPa | 0 mm | - | 0 W/m² | - |
| 1777328646 | 10° C | 45% | 1004.9 hPa | 0 mm | - | 0 W/m² | - |
| 1777328335 | 10° C | 44% | 1004.8 hPa | 0 mm | - | 0 W/m² | - |
* Rain latest hour (hover to see other rain measurements)
** Current wind speed in m/s (hover to see current wind gust speed)